Location: Azul
(36.7830°S, 59.8500°W)
Time: 02:27:08
(UTC-03:00)

BUGSAT 1 - Visible Passes

Search period start: 23 October 2021 00:00
Search period end: 02 November 2021 00:00
Orbit: 556 x 602 km, 98.1° (Epoch: 22 October)

Date Brightness Start Highest point End Pass type
(mag) Time Alt. Az. Time Alt. Az. Time Alt. Az.
23 Oct ? 04:07:25 10° ENE 04:10:20 19° ESE 04:13:19 10° SSE visible
24 Oct ? 04:11:56 10° ENE 04:15:05 21° ESE 04:18:17 10° SSE visible
25 Oct ? 04:16:30 10° ENE 04:19:50 23° ESE 04:23:14 10° SSE visible
26 Oct ? 04:21:05 10° NE 04:24:35 26° ESE 04:28:09 10° SSE visible
27 Oct ? 04:25:41 10° NE 04:29:20 29° ESE 04:33:03 10° S visible
28 Oct ? 04:30:18 10° NE 04:34:05 33° ESE 04:37:55 10° S visible
29 Oct ? 04:34:57 10° NE 04:38:49 37° ESE 04:42:48 10° S visible
30 Oct ? 04:39:36 10° NE 04:43:35 42° ESE 04:47:38 10° S visible
31 Oct ? 04:44:16 10° NNE 04:48:19 48° ESE 04:52:28 10° S visible
01 Nov ? 04:48:58 10° NNE 04:53:04 54° ESE 04:57:17 10° S visible
